This demonstration page uses our WeatherBlox Daily Observations layout. Learn more.

Left ArrowRight Arrow

Hourly Observations for May 27, 2022

Temp ( °F °C ) Dew Point ( °F °C ) Humidity (%) Winds ( mph kmh ) Pressure ( in mb ) Visibility ( mi km ) Precip ( " mm )
12:53 am 00:53 Clear 79 26.1 36 2.2 21 21 ESE 15 24 29.88 1012 10 16 0.00 0.00
1:53 am 01:53 Clear 77 25 38 3.3 24 24 ESE 12 19 29.87 1012 10 16 0.00 0.00
2:53 am 02:53 Clear 72 22.2 36 2.2 27 27 ESE 8 13 29.88 1012 10 16 0.00 0.00
3:53 am 03:53 Clear 72 22.2 42 5.6 34 34 ESE 9 15 29.87 1012 10 16 0.00 0.00
4:53 am 04:53 Clear 69 20.6 42 5.6 38 38 ESE 8 13 29.88 1012 10 16 0.00 0.00
5:53 am 05:53 Clear 68 20 44 6.7 42 42 E 7 11 29.89 1012 10 16 0.00 0.00
6:53 am 06:53 Sunny 64 17.8 43 6.1 46 46 E 5 7 29.90 1013 10 16 0.00 0.00
7:53 am 07:53 Sunny 70 21.1 50 10 49 49 ESE 12 19 29.91 1013 10 16 0.00 0.00
8:53 am 08:53 Sunny 76 24.4 56 13.3 50 50 SE 15 24 29.91 1013 10 16 0.00 0.00
9:53 am 09:53 Sunny 81 27.2 58 14.4 45 45 SSE 17 28 29.92 1013 10 16 0.00 0.00
10:53 am 10:53 Sunny 86 30 56 13.3 36 36 SSE 17 28 29.91 1013 10 16 0.00 0.00
11:53 am 11:53 Sunny 91 32.8 51 10.6 26 26 SSE 18 30 29.90 1013 10 16 0.00 0.00
12:53 pm 12:53 Sunny 94 34.4 48 8.9 21 21 S 12 19 29.88 1012 10 16 0.00 0.00
1:53 pm 13:53 Sunny 99 37.2 35 1.7 11 11 SSE 22 35 29.84 1010 10 16 0.00 0.00
2:53 pm 14:53 Sunny 100 37.8 32 0 9 9 SE 15 24 29.82 1010 10 16 0.00 0.00
3:53 pm 15:53 Sunny 101 38.3 31 -0.6 8 8 S 21 33 29.78 1009 10 16 0.00 0.00
4:53 pm 16:53 Sunny 101 38.3 29 -1.7 8 8 SSE 14 22 29.75 1008 10 16 0.00 0.00
5:53 pm 17:53 Sunny 101 38.3 30 -1.1 8 8 SE 13 20 29.73 1007 10 16 0.00 0.00
6:03 pm 18:03 Sunny 101 38.3 30 -1.1 8 8 S 18 30 29.60 1002 10 16 0.00 0.00
6:53 pm 18:53 Sunny 100 37.8 30 -1.1 8 8 SE 14 22 29.72 1006 10 16 0.00 0.00
7:53 pm 19:53 Sunny 97 36.1 37 2.8 12 12 SSE 23 37 29.71 1006 10 16 0.00 0.00
8:53 pm 20:53 Clear 93 33.9 45 7.2 19 19 SSE 24 39 29.71 1006 10 16 0.00 0.00
9:53 pm 21:53 Clear 89 31.7 45 7.2 22 22 SSE 21 33 29.72 1007 10 16 0.00 0.00
10:53 pm 22:53 Clear 87 30.6 52 11.1 30 30 SSE 22 35 29.73 1007 10 16 0.00 0.00
11:53 pm 23:53 Clear 84 28.9 55 12.8 37 37 SSE 23 37 29.73 1007 10 16 0.00 0.00

Powered by AerisWeather